EW4115 Weather Reports


time (UTC)temp
F
wind
direction
speed
knots
gust
knots
rain 1hr
in
rain 24hr
in
rain mn
in
humidity
%
barometer
mb
20260507030002 58 247 0.0 0.0 0.00 0.00 0.00 75 1016.0
20260507024608 58 247 0.0 0.0 0.00 0.00 0.00 74 1015.8
20260507023059 59 247 0.0 0.0 0.00 0.00 0.00 73 1015.8
20260507021603 59 247 0.0 0.0 0.00 0.00 0.00 73 1015.8
20260507020113 59 247 0.0 0.9 0.00 0.00 0.00 72 1015.7
20260507014604 59 247 0.0 0.0 0.00 0.00 0.00 71 1015.6
20260507013058 59 247 0.0 0.0 0.00 0.00 0.00 71 1015.4
20260507011555 59 247 0.0 0.9 0.00 0.00 0.00 72 1015.2
20260507004602 60 247 0.0 0.0 0.00 0.00 0.00 71 1015.1
20260507003053 60 247 0.0 0.0 0.00 0.00 0.00 71 1014.9
20260507001551 60 247 0.0 0.0 0.00 0.00 0.00 70 1015.0
20260507000047 60 247 0.0 0.0 0.00 0.00 0.00 70 1015.2
20260506234548 61 247 0.0 0.9 0.00 0.00 0.00 68 1015.5
20260506233056 61 247 0.0 0.0 0.00 0.00 0.00 67 1015.7
20260506231539 61 247 0.0 0.0 0.00 0.00 0.00 66 1015.7
20260506230046 62 247 0.0 0.0 0.00 0.00 0.00 65 1015.7
20260506224537 62 247 0.0 0.0 0.00 0.00 0.00 65 1015.8
20260506223041 62 247 0.0 0.0 0.00 0.00 0.00 64 1015.9
20260506221532 63 247 0.0 0.0 0.00 0.00 0.00 63 1016.0
20260506220030 63 247 0.0 0.0 0.00 0.00 0.00 61 1016.0
20260506214539 63 247 0.0 0.0 0.00 0.00 0.00 60 1016.0
20260506213027 63 247 0.0 0.0 0.00 0.00 0.00 59 1016.2
20260506211526 64 247 0.0 0.0 0.00 0.00 0.00 59 1016.3
20260506210027 64 247 0.0 0.0 0.00 0.00 0.00 58 1016.4
20260506204524 64 247 0.0 0.0 0.00 0.00 0.00 57 1016.4
20260506203023 65 247 0.0 0.0 0.00 0.00 0.00 55 1016.5
20260506201523 66 247 0.0 0.0 0.00 0.00 0.00 55 1016.3
20260506200021 66 247 0.0 0.0 0.00 0.00 0.00 54 1016.2
20260506194519 67 247 0.0 0.0 0.00 0.00 0.00 53 1016.1
20260506193016 67 247 0.0 0.0 0.00 0.00 0.00 52 1015.9
20260506191516 68 247 0.0 0.0 0.00 0.00 0.00 52 1015.8
20260506190016 68 247 0.0 0.0 0.00 0.00 0.00 51 1015.6
20260506184532 69 247 0.0 0.0 0.00 0.00 0.00 49 1015.5
20260506183022 69 247 0.0 0.9 0.00 0.00 0.00 47 1015.4
20260506181516 70 247 0.0 0.0 0.00 0.00 0.00 46 1015.2
20260506180015 70 247 0.0 0.9 0.00 0.00 0.00 43 1015.1
20260506174513 70 247 0.0 2.6 0.00 0.00 0.00 41 1015.0
20260506173013 71 246 0.0 4.3 0.00 0.00 0.00 40 1014.9
20260506171512 72 249 0.0 2.6 0.00 0.00 0.00 39 1014.7
20260506170012 72 243 0.9 2.6 0.00 0.00 0.00 38 1014.7
20260506164511 73 244 1.7 4.3 0.00 0.00 0.00 36 1014.8
20260506163011 75 286 0.9 4.3 0.00 0.00 0.00 35 1014.8
20260506161513 76 268 0.9 3.5 0.00 0.00 0.00 34 1014.6
20260506160010 77 262 1.7 7.0 0.00 0.00 0.00 33 1014.7
20260506154508 77 260 0.0 6.1 0.00 0.00 0.00 35 1014.7
20260506153018 78 256 2.6 7.0 0.00 0.00 0.00 33 1014.8
20260506151507 78 251 1.7 6.1 0.00 0.00 0.00 34 1014.8
20260506150007 79 276 2.6 9.6 0.00 0.00 0.00 33 1014.9
20260506144513 79 300 0.9 7.0 0.00 0.00 0.00 34 1014.9
20260506143005 79 239 1.7 7.0 0.00 0.00 0.00 34 1014.8
20260506141506 80 235 3.5 11.3 0.00 0.00 0.00 35 1014.8
20260506140005 80 235 1.7 8.7 0.00 0.00 0.00 34 1014.8
20260506134504 80 231 0.9 9.6 0.00 0.00 0.00 33 1014.9
20260506133002 80 259 2.6 9.6 0.00 0.00 0.00 33 1014.9
20260506131502 80 219 0.9 8.7 0.00 0.00 0.00 33 1014.9
20260506130000 80 241 0.9 8.7 0.00 0.00 0.00 32 1014.9
20260506124609 81 175 1.7 8.7 0.00 0.00 0.00 33 1015.0
20260506123101 81 277 3.5 7.8 0.00 0.00 0.00 30 1015.1
20260506121558 81 249 1.7 8.7 0.00 0.00 0.00 31 1015.1
20260506120058 80 241 0.9 9.6 0.00 0.00 0.00 33 1015.2
20260506114602 81 256 1.7 8.7 0.00 0.00 0.00 34 1015.2
20260506113056 81 152 0.9 7.0 0.00 0.00 0.00 32 1015.4
20260506111554 81 180 1.7 8.7 0.00 0.00 0.00 32 1015.4
20260506110054 81 208 1.7 10.4 0.00 0.00 0.00 35 1015.4
20260506104557 81 252 1.7 7.0 0.00 0.00 0.00 36 1015.3
20260506103054 80 243 1.7 7.0 0.00 0.00 0.00 37 1015.4
20260506101548 79 262 2.6 7.8 0.00 0.00 0.00 37 1015.5
20260506100046 79 249 1.7 7.8 0.00 0.00 0.00 37 1015.6
20260506094544 80 223 0.9 7.0 0.00 0.00 0.00 38 1015.7
20260506093040 79 192 0.9 4.3 0.00 0.00 0.00 38 1015.7
20260506091543 79 270 2.6 7.0 0.00 0.00 0.00 36 1015.8
20260506090034 77 185 0.0 5.2 0.00 0.00 0.00 37 1015.7
20260506084535 77 248 3.5 7.0 0.00 0.00 0.00 38 1015.7
20260506083031 77 235 0.9 4.3 0.00 0.00 0.00 39 1015.7
20260506081530 76 310 1.7 6.1 0.00 0.00 0.00 40 1015.7
20260506073120 74 246 0.0 6.1 0.00 0.00 0.00 42 1015.5
20260506071537 74 238 3.5 8.7 0.00 0.00 0.00 42 1015.3
20260506070128 74 288 0.9 2.6 0.00 0.00 0.00 44 1015.3
20260506061556 72 120 0.0 1.7 0.00 0.00 0.00 47 1015.4
20260506044530 59 120 0.0 0.0 0.00 0.00 0.00 78 1015.0
20260506043025 57 120 0.0 0.0 0.00 0.00 0.00 82 1015.0
20260506041522 56 120 0.0 0.0 0.00 0.00 0.00 81 1014.9
20260506040023 56 132 0.0 0.0 0.00 0.00 0.00 81 1014.8
20260506034520 56 132 0.0 0.0 0.00 0.00 0.00 80 1014.7
20260506033015 56 132 0.0 0.0 0.00 0.00 0.00 80 1014.5
20260506031514 56 133 0.0 0.0 0.00 0.00 0.00 80 1014.5